Flag for Germany Weather past 2 weeks in Nordkirchen, North Rhine-Westphalia, Germany

39 °F

Partly cloudy.

Feels Like: 34 °F
Forecast: 36 / 44 °F
Wind: 7 mph from West

Location: Dortmund / Wickede

Current Time: Nov 25, 2015 at 10:04:13 PM

Latest Report: Nov 25, 2015 at 9:20 PM

Visibility: N/A

Pressure: 29.74 "Hg

Humidity: 87%

Dew point: 36 °F

Location of NordkirchenLocation

Historic Weather in Nordkirchen — Graph


Nordkirchen temperature yesterday

Maximum temperature yesterday: 37 °F (at 10:20 AM)
Minimum temperature yesterday: 34 °F (at 6:20 PM)
Average temperature yesterday: 36 °F

Past Weeks' High & Low Weather Summary

High59 °F (Nov 17, 9:20 PM)94% (Nov 15, 6:50 PM)30.30 "Hg (Nov 15, 6:50 PM)
Low32 °F (Nov 22, 6:20 AM)55% (Nov 13, 1:20 PM)29.39 "Hg (Nov 21, 5:20 AM)
Average47 °F76%29.91 "Hg
* Reported Nov 10 8:20 PM — Nov 25 8:50 PM, Nordkirchen, Weather by CustomWeather, © 2015

Note: Actual official high and low records may vary slightly from our data, if they occured in-between our weather recording intervals... More about our weather records


Nordkirchen weather history for previous 24 hours

Time TempWeatherWind HumidityBarometerVisibility
8:50 PM
Wed, Nov 25
39 °FPassing clouds.7 mph87%29.74 "HgN/A
8:20 PM39 °FPassing clouds.7 mph87%29.71 "HgN/A
7:50 PM39 °FPassing clouds.7 mph87%29.71 "HgN/A
7:20 PM39 °FPartly cloudy.6 mph87%29.71 "HgN/A
6:50 PM41 °FPartly cloudy.7 mph81%29.71 "HgN/A
6:20 PM41 °FPassing clouds.6 mph81%29.68 "HgN/A
5:50 PM41 °FPassing clouds.8 mph81%29.68 "HgN/A
5:20 PM41 °FPassing clouds.8 mph87%29.68 "HgN/A
4:50 PM41 °FPassing clouds.6 mph87%29.68 "HgN/A
4:20 PM41 °FPartly sunny.5 mph87%29.65 "HgN/A
3:50 PM41 °FPartly sunny.5 mph87%29.65 "HgN/A
3:20 PM41 °FPartly sunny.7 mph87%29.65 "HgN/A
2:50 PM43 °FScattered showers. Broken clouds.7 mph81%29.65 "HgN/A
2:20 PM41 °FScattered showers. Broken clouds.8 mph87%29.65 "HgN/A
1:50 PM41 °FScattered showers. Partly sunny.8 mph87%29.65 "Hg6 mi
1:20 PM43 °FSprinkles. Broken clouds.12 mph81%29.65 "Hg6 mi
12:50 PM43 °FPartly sunny.12 mph81%29.65 "HgN/A
12:20 PM43 °FBroken clouds.10 mph81%29.65 "HgN/A
11:50 AM43 °FPartly sunny.12 mph81%29.65 "HgN/A
11:20 AM43 °FPartly sunny.10 mph81%29.65 "HgN/A
10:50 AM41 °FPartly sunny.12 mph87%29.68 "Hg4 mi
10:20 AM41 °FPartly sunny.10 mph87%29.68 "Hg4 mi
9:50 AM39 °FPartly sunny.9 mph93%29.68 "Hg4 mi
9:20 AM39 °FFog.9 mph87%29.68 "Hg2 mi
8:50 AM39 °FFog.12 mph87%29.68 "Hg3 mi
7:50 AM37 °FLight rain. Passing clouds.12 mph87%29.65 "Hg4 mi
6:50 AM37 °FPassing clouds.14 mph87%29.65 "HgN/A
5:50 AM37 °FPassing clouds.14 mph81%29.65 "HgN/A
10:50 PM
Tue, Nov 24
34 °FLight rain. Passing clouds.15 mph87%29.74 "HgN/A
10:20 PM34 °FLight snow. Passing clouds.16 mph87%29.77 "HgN/A
Weather by CustomWeather, © 2015

See weather overviewHow to use our weather pages